UAL341 KBOS-KJFK

Flight info

Callsign UAL341
Flight time N/A
Altitude 20000
Route SSOXS7 SSOXS BUZRD SEY PARCH3
Aircraft A20N/M-SDE2E3FGHIRWXY/LB1

Departure

Time N/A
Airport Boston Logan International Airport (KBOS)

Arrival

Time 2026-05-03 20:22
Airport John F. Kennedy International Airport (KJFK)
Time Latitude Longitude Altitude Speed Heading
2026-05-03 20:15 40.62016 -73.24279 8497 ft 262 kts 257°
2026-05-03 20:15 40.61451 -73.26552 8064 ft 260 kts 257°
2026-05-03 20:15 40.60892 -73.28810 7627 ft 258 kts 257°
2026-05-03 20:15 40.59638 -73.33853 7225 ft 233 kts 257°
2026-05-03 20:16 40.58566 -73.38063 6726 ft 222 kts 257°
2026-05-03 20:16 40.58082 -73.39966 6424 ft 221 kts 257°
2026-05-03 20:16 40.57595 -73.41885 6119 ft 220 kts 257°
2026-05-03 20:16 40.57111 -73.43786 5804 ft 219 kts 257°
2026-05-03 20:17 40.56452 -73.47068 5272 ft 214 kts 262°
2026-05-03 20:17 40.55999 -73.49710 4293 ft 226 kts 262°
2026-05-03 20:17 40.55657 -73.51765 3464 ft 237 kts 262°
2026-05-03 20:17 40.55381 -73.53909 3196 ft 239 kts 272°
2026-05-03 20:18 40.55698 -73.56334 3075 ft 232 kts 291°
2026-05-03 20:18 40.56421 -73.58358 2963 ft 223 kts 299°
2026-05-03 20:18 40.57239 -73.60195 2788 ft 206 kts 301°
2026-05-03 20:18 40.57952 -73.61771 2558 ft 202 kts 301°
2026-05-03 20:19 40.58733 -73.63490 2294 ft 223 kts 301°
2026-05-03 20:19 40.59492 -73.65159 1990 ft 200 kts 301°
2026-05-03 20:19 40.60165 -73.66649 1725 ft 180 kts 301°
2026-05-03 20:19 40.60775 -73.67989 1491 ft 160 kts 301°
2026-05-03 20:20 40.61299 -73.69145 1292 ft 141 kts 301°
2026-05-03 20:20 40.61743 -73.70125 1111 ft 119 kts 301°
2026-05-03 20:20 40.62183 -73.71093 944 ft 126 kts 301°
2026-05-03 20:20 40.62630 -73.72083 771 ft 125 kts 303°
2026-05-03 20:21 40.63069 -73.73046 600 ft 122 kts 303°
2026-05-03 20:21 40.63495 -73.73991 430 ft 117 kts 300°
2026-05-03 20:21 40.63904 -73.74889 277 ft 115 kts 300°
2026-05-03 20:21 40.64337 -73.75849 123 ft 129 kts 301°
2026-05-03 20:22 40.64772 -73.76801 24 ft 109 kts 300°
2026-05-03 20:22 40.64987 -73.77279 21 ft 31 kts 301°
2026-05-03 20:22 40.65002 -73.77430 22 ft 12 kts 229°
2026-05-03 20:22 40.64922 -73.77526 20 ft 19 kts 220°
2026-05-03 20:23 40.64840 -73.77614 22 ft 12 kts 218°
2026-05-03 20:23 40.64765 -73.77680 21 ft 10 kts 207°
2026-05-03 20:23 40.64758 -73.77685 20 ft 0 kts 208°